Location: Clanezzo
(45.7500°N, 9.6000°E)
Time: 22:13:54
(UTC+00:00)

EO-79 - Pass Details

Date: 06 July 2022
Orbit: 588 x 603 km, 98.0° (Epoch: 07 August)

Event Time Altitude Azimuth Distance (km) Brightness Sun altitude
Rises 01:47:13 0° 5° (N) 2,858 ? -14.4°
Reaches altitude 10° 01:49:30 10° 358° (N) 1,953 ? -14.2°
Maximum altitude 01:53:25 37° 291° (WNW) 944 ? -13.8°
Enters shadow 01:55:47 20° 235° (SW) 1,403 ? -13.6°
